{"data":{"norad_id":66649,"intl_designator":"2025-273C","name":"COSMOS 2599 (RODNIK-S *)","alt_names":[],"object_type":"PAYLOAD","status":"ACTIVE","operator":null,"country":"CIS","launch_date":"2025-11-25","launch_site_code":"PLMSC","launch_vehicle":null,"mission":null,"orbit_class":"UNKNOWN","rcs_meters":null,"size_class":null,"mass_kg":null,"dimensions":null,"purposes":[],"wikipedia_slug":null,"has_3d_model":false,"image_url":null,"decayed_at":null,"tle_current":{"epoch":"2026-05-25T02:01:16.253760Z","epoch_age_seconds":68585,"freshness":"FRESH","line1":"1 66649U 25273C   26145.08421590  .00000020  00000+0  73067-4 0  9995","line2":"2 66649  82.5034 184.9908 0014616 252.0193 107.9294 12.42896711 22427","mean_motion":12.42896711,"eccentricity":0.0014616,"inclination_deg":82.5034,"raan_deg":184.9908,"arg_perigee_deg":252.0193,"mean_anomaly_deg":107.9294,"bstar":7.3067e-5,"rev_number":2242,"period_min":115.85838044751,"perigee_km":1482.841099095,"apogee_km":1505.8539458511,"semimajor_km":7872.484522473,"source":"CELESTRAK","updated_at":"2026-05-25T13:38:06.378998Z"}}}